Flag for U.S.A. Weather past 2 weeks in Sacramento, California, U.S.A.

Now
82 °F

Sunny.


Feels Like: 81 °F
Forecast: 61 / 82 °F
Wind: 5 mph from Southwest

Location: Sacramento Executive Airport

Current Time: Sep 23, 2014 at 7:39:43 PM

Latest Report: Sep 23, 2014 at 6:53 PM


Visibility: 10 mi

Pressure: 29.86 "Hg

Humidity: 35%

Dew point: 52 °F

Location of SacramentoLocation

Historic Weather in Sacramento — Graph

°F

Sacramento temperature yesterday

Maximum temperature yesterday: 87 °F (at 3:53 PM)
Minimum temperature yesterday: 60 °F (at 5:53 AM)
Average temperature yesterday: 71 °F

Past Weeks' High & Low Weather Summary

 TemperatureHumidityPressure
High102 °F (Sep 12, 3:53 PM)90% (Sep 9, 4:53 AM)30.01 "Hg (Sep 9, 4:53 AM)
Low55 °F (Sep 9, 6:53 AM)12% (Sep 10, 5:53 PM)29.69 "Hg (Sep 13, 6:53 PM)
Average74 °F54%29.84 "Hg
* Reported Sep 8 5:53 PM — Sep 23 5:53 PM, Sacramento, Weather by CustomWeather, © 2014

Note: Actual official high and low records may vary slightly from our data, if they occured in-between our weather recording intervals... More about our weather records

Advertising

Sacramento weather history for previous 24 hours

 ConditionsComfort  
Time TempWeatherWind HumidityBarometerVisibility
5:53 PM
Sep 23
86 °FSunny.7 mph31%29.86 "Hg10 mi
4:53 PM88 °FSunny.8 mph29%29.87 "Hg10 mi
3:53 PM88 °FSunny.10 mph29%29.88 "Hg10 mi
2:53 PM88 °FSunny.7 mph30%29.90 "Hg10 mi
1:53 PM86 °FSunny.9 mph32%29.93 "Hg10 mi
12:53 PM83 °FSunny.6 mph40%29.95 "Hg10 mi
11:53 AM79 °FSunny.8 mph47%29.96 "Hg10 mi
10:53 AM74 °FSunny.9 mph56%29.98 "Hg10 mi
9:53 AM70 °FSunny.7 mph64%29.98 "Hg10 mi
8:53 AM66 °FSunny.8 mph73%29.97 "Hg10 mi
7:53 AM63 °FClear.5 mph81%29.96 "Hg10 mi
6:53 AM61 °FClear.6 mph83%29.94 "Hg10 mi
5:53 AM61 °FClear.5 mph81%29.94 "Hg10 mi
4:53 AM62 °FClear.5 mph75%29.93 "Hg10 mi
3:53 AM63 °FClear.3 mph73%29.93 "Hg10 mi
2:53 AM64 °FClear.3 mph68%29.93 "Hg10 mi
1:53 AM65 °FClear.5 mph66%29.94 "Hg10 mi
12:53 AM65 °FClear.3 mph66%29.92 "Hg10 mi
11:53 PM
Sep 22
67 °FClear.5 mph59%29.92 "Hg10 mi
10:53 PM68 °FClear.8 mph59%29.92 "Hg10 mi
9:53 PM70 °FClear.7 mph55%29.91 "Hg10 mi
8:53 PM72 °FClear.5 mph52%29.91 "Hg10 mi
7:53 PM75 °FSunny.5 mph48%29.90 "Hg10 mi
Weather by CustomWeather, © 2014

See weather overviewHow to use our weather pages